This demonstration page uses our WeatherBlox Daily Observations layout. Learn more.

39.51506, -84.39828

Hourly Observations for January 25, 2020

Temp ( °F °C ) Dew Point ( °F °C ) Humidity (%) Winds ( mph kmh ) Pressure ( in mb ) Visibility ( mi km ) Precip ( " mm )
12:15 am 00:15 Cloudy 39 3.7 37 2.8 94 94 SW 5 7 29.92 1013 10 16.0934 0 0
12:35 am 00:35 Cloudy 38 3.6 37 2.8 95 95 Calm 29.91 1013 10 16.0934 0 0
12:55 am 00:55 Cloudy 38 3.4 37 2.8 96 96 Calm 29.91 1013 10 16.0934 0 0
1:15 am 01:15 Cloudy 38 3.1 37 2.7 97 97 SW 3 6 29.91 1013 7 11.26538 0 0
1:35 am 01:35 Cloudy 38 3.3 37 2.8 97 97 SW 6 9 29.9 1012 10 16.0934 0 0
1:55 am 01:55 Cloudy with Light Drizzle 38 3.2 37 2.6 96 96 SW 6 9 29.91 1013 10 16.0934 0 0
2:15 am 02:15 Cloudy with Light Drizzle 38 3.1 37 2.6 97 97 SSW 5 7 29.91 1013 10 16.0934 0 0
2:35 am 02:35 Cloudy 37 3 37 2.6 97 97 SSW 5 7 29.91 1013 10 16.0934 0 0
2:55 am 02:55 Cloudy 37 2.5 36 2.1 97 97 SSW 5 7 29.91 1013 10 16.0934 0 0
3:15 am 03:15 Cloudy 37 2.9 37 2.6 98 98 SW 6 9 29.92 1013 10 16.0934 0 0
3:35 am 03:35 Cloudy 37 3 37 2.6 97 97 SW 7 11 29.92 1013 10 16.0934 0 0
3:55 am 03:55 Cloudy 38 3.1 36 2.3 95 95 SW 7 11 29.92 1013 10 16.0934 0 0
4:15 am 04:15 Cloudy 37 3 36 2.3 95 95 SW 5 7 29.92 1013 10 16.0934 0 0
4:35 am 04:35 Cloudy 37 2.9 36 2.4 97 97 SW 7 11 29.92 1013 7 11.26538 0 0
4:55 am 04:55 Cloudy 37 2.8 36 2.4 97 97 SW 6 9 29.92 1013 10 16.0934 0 0
5:15 am 05:15 Cloudy 37 2.8 36 2.4 97 97 SW 6 9 29.92 1013 7 11.26538 0 0
5:35 am 05:35 Cloudy with Mist and Fog 37 2.7 37 2.5 99 99 SW 7 11 29.93 1013 7 11.26538 0 0
5:55 am 05:55 Cloudy with Mist and Fog 37 2.9 37 2.6 98 98 SW 6 9 29.93 1013 7 11.26538 0 0
6:15 am 06:15 Cloudy with Light Drizzle 37 2.9 37 2.6 98 98 SW 9 15 29.94 1014 3.5 5.63269 0 0
6:35 am 06:35 Cloudy with Light Drizzle 37 2.8 37 2.6 99 99 SW 10 17 29.94 1014 5 8.0467 0 0
6:55 am 06:55 Cloudy 37 2.9 37 2.5 97 97 WSW 9 15 29.95 1014 10 16.0934 0 0
7:15 am 07:15 Cloudy 37 2.8 36 2 95 95 WSW 13 20 29.96 1014 10 16.0934 0 0
7:35 am 07:35 Cloudy 37 2.7 35 1.7 93 93 SW 13 20 29.96 1014 10 16.0934 0 0
7:55 am 07:55 Cloudy 37 2.6 35 1.5 93 93 SW 14 22 29.97 1015 10 16.0934 0 0
8:15 am 08:15 Cloudy 37 2.5 34 1.3 92 92 WSW 16 26 29.98 1015 10 16.0934 0 0
8:35 am 08:35 Cloudy 36 2.3 34 1 91 91 WSW 15 24 29.98 1015 10 16.0934 0 0
8:55 am 08:55 Cloudy 36 2.2 34 1 92 92 SW 12 19 29.98 1015 10 16.0934 0 0
9:15 am 09:15 Cloudy 36 2.2 34 0.9 91 91 SW 12 19 29.98 1015 10 16.0934 0 0
9:35 am 09:35 Cloudy 36 2.3 34 0.9 91 91 SW 13 20 29.99 1016 10 16.0934 0 0
9:55 am 09:55 Cloudy 36 2.1 34 0.9 92 92 SW 14 22 29.99 1016 10 16.0934 0 0
10:15 am 10:15 Cloudy with Mist and Fog 35 1.9 34 1 94 94 SW 14 22 30 1016 5 8.0467 0 0
10:35 am 10:35 Cloudy 36 2.1 34 1 93 93 SW 14 22 30 1016 10 16.0934 0 0
10:55 am 10:55 Cloudy 36 2.2 34 1 92 92 SW 14 22 30.01 1016 10 16.0934 0 0
11:15 am 11:15 Cloudy with Drizzle 36 2.1 34 1 93 93 SW 13 20 30.01 1016 5 8.0467 0 0
11:35 am 11:35 Cloudy with Light Drizzle 37 2.5 35 1.6 94 94 SW 15 24 30.01 1016 10 16.0934 0 0
11:55 am 11:55 Cloudy with Light Rain 37 2.8 35 1.7 93 93 SW 14 22 30 1016 10 16.0934 0 0
12:15 pm 12:15 Cloudy with Light Drizzle 37 2.7 35 1.4 91 91 SW 13 20 30 1016 10 16.0934 0 0
12:35 pm 12:35 Cloudy with Light Rain 37 2.7 35 1.4 91 91 SW 16 26 29.99 1016 10 16.0934 0 0
12:55 pm 12:55 Cloudy with Light Rain 36 2.4 33 0.7 89 89 SW 16 26 29.99 1016 10 16.0934 0 0
1:15 pm 13:15 Cloudy with Light Rain 36 2.2 34 0.9 91 91 SW 12 19 29.99 1016 7 11.26538 0 0
1:35 pm 13:35 Cloudy with Light Rain 36 2.3 33 0.7 89 89 SW 16 26 29.98 1015 10 16.0934 0 0
1:55 pm 13:55 Cloudy with Light Rain 36 2.4 34 0.9 90 90 WSW 17 28 29.98 1015 7 11.26538 0 0
2:15 pm 14:15 Cloudy with Light Rain 36 2.4 33 0.6 88 88 WSW 13 20 29.98 1015 10 16.0934 0 0
2:35 pm 14:35 Cloudy with Light Rain 36 2.1 33 0.5 89 89 SW 14 22 29.97 1015 5 8.0467 0 0
2:55 pm 14:55 Cloudy with Light Rain 36 2.1 33 0.5 89 89 SW 14 22 29.97 1015 7 11.26538 0 0
3:15 pm 15:15 Cloudy with Light Drizzle 35 1.9 33 0.6 91 91 SW 14 22 29.97 1015 5 8.0467 0 0
3:35 pm 15:35 Cloudy with Light Drizzle 36 2 33 0.8 92 92 SW 14 22 29.97 1015 5 8.0467 0 0
3:55 pm 15:55 Cloudy with Light Drizzle 35 1.9 33 0.8 93 93 SW 13 20 29.97 1015 7 11.26538 0 0
4:15 pm 16:15 Cloudy with Light Drizzle 35 1.8 33 0.7 93 93 SW 13 20 29.98 1015 7 11.26538 0 0
4:35 pm 16:35 Cloudy with Light Drizzle 35 1.8 33 0.7 93 93 SW 9 15 29.98 1015 7 11.26538 0 0
4:55 pm 16:55 Cloudy with Light Rain 35 1.8 33 0.6 92 92 SW 13 20 29.98 1015 7 11.26538 0 0
5:15 pm 17:15 Cloudy with Light Rain 35 1.5 33 0.6 94 94 SW 10 17 29.98 1015 5 8.0467 0 0
5:35 pm 17:35 Cloudy with Light Rain 34 1.3 33 0.6 95 95 SW 12 19 29.99 1016 3 4.82802 0 0
5:55 pm 17:55 Cloudy with Light Rain 34 1.3 33 0.5 94 94 SW 10 17 29.99 1016 3.5 5.63269 0 0
6:15 pm 18:15 Cloudy with Light Rain 34 1.2 33 0.4 94 94 SW 10 17 29.99 1016 5 8.0467 0 0
6:35 pm 18:35 Cloudy with Light Rain 34 1.1 33 0.4 95 95 SW 12 19 30 1016 4 6.43736 0 0
6:55 pm 18:55 Cloudy with Light Rain 34 0.9 33 0.3 96 96 SW 12 19 30 1016 3.5 5.63269 0 0
7:15 pm 19:15 Cloudy with Light Rain 33 0.8 33 0.3 97 97 SW 17 28 30 1016 3.5 5.63269 0 0
7:35 pm 19:35 Cloudy with Light Rain 34 0.9 32 0.2 95 95 SW 10 17 30.01 1016 5 8.0467 0 0
7:55 pm 19:55 Cloudy with Light Rain 34 0.9 33 0.3 96 96 WSW 12 19 30.01 1016 4 6.43736 0 0
8:15 pm 20:15 Cloudy with Light Drizzle 34 0.9 32 0.2 95 95 SW 12 19 30.01 1016 5 8.0467 0 0
8:35 pm 20:35 Cloudy with Mist and Fog 34 0.9 32 0 94 94 SW 13 20 30.02 1017 5 8.0467 0 0
8:55 pm 20:55 Cloudy with Light Drizzle 34 0.9 31 -0.3 92 92 SW 12 19 30.01 1016 5 8.0467 0 0
9:15 pm 21:15 Cloudy with Mist and Fog 33 0.8 31 -0.3 92 92 SW 12 19 30.01 1016 5 8.0467 0 0
9:35 pm 21:35 Cloudy with Light Drizzle 33 0.7 31 -0.5 92 92 SW 14 22 30.01 1016 5 8.0467 0 0
9:55 pm 21:55 Cloudy with Mist and Fog 33 0.6 31 -0.7 91 91 WSW 16 26 30.01 1016 5 8.0467 0 0
10:15 pm 22:15 Cloudy with Mist and Fog 33 0.5 31 -0.7 92 92 SW 14 22 30.02 1017 5 8.0467 0 0
10:35 pm 22:35 Cloudy with Mist and Fog 33 0.4 31 -0.7 92 92 WSW 14 22 30.02 1017 5 8.0467 0 0
10:55 pm 22:55 Cloudy 33 0.4 31 -0.7 92 92 WSW 12 19 30.02 1017 10 16.0934 0 0
11:15 pm 23:15 Cloudy 33 0.5 31 -0.7 92 92 WSW 14 22 30.02 1017 10 16.0934 0 0
11:35 pm 23:35 Cloudy 33 0.5 31 -0.7 92 92 WSW 13 20 30.02 1017 10 16.0934 0 0
11:55 pm 23:55 Cloudy 33 0.4 31 -0.7 92 92 WSW 10 17 30.02 1017 7 11.26538 0 0

Powered by AerisWeather